Flag for Saint Lucia Weather past 2 weeks in Castries, Saint Lucia

Now
86 °F

Passing clouds.


Feels Like: 92 °F
Forecast: 80 / 85 °F
Wind: 8 mph from East

Location: Vigie

Current Time: Jul 29, 2014 at 12:34:48 PM

Latest Report: Jul 29, 2014 at 12:00 PM


Visibility: N/A

Pressure: 30.04 "Hg

Humidity: 62%

Dew point: 72 °F

Location of CastriesLocation

Historic Weather in Castries — Graph

°F

Castries temperature yesterday

Maximum temperature yesterday: 86 °F (at 1:00 PM)
Minimum temperature yesterday: 79 °F (at 6:00 AM)
Average temperature yesterday: 83 °F

Past Weeks' High & Low Weather Summary

 TemperatureHumidityPressure
High88 °F (Jul 14, 1:00 PM)100% (Jul 17, 6:00 PM)30.09 "Hg (Jul 17, 6:00 PM)
Low77 °F (Jul 17, 7:00 AM)59% (Jul 16, 2:00 PM)29.56 "Hg (Jul 20, 5:00 AM)
Average83 °F74%30.03 "Hg
* Reported Jul 14 11:00 AM — Jul 29 11:00 AM, Castries, Weather by CustomWeather, © 2014

Note: Actual official high and low records may vary slightly from our data, if they occured in-between our weather recording intervals... More about our weather records

Advertising

Castries weather history for previous 24 hours

 ConditionsComfort  
Time TempWeatherWind HumidityBarometerVisibility
11:00 AM
Jul 29
86 °FScattered clouds.8 mph62%30.04 "HgN/A
10:00 AM86 °FPartly sunny.12 mph62%30.04 "HgN/A
9:00 AM84 °FScattered clouds.7 mph66%30.04 "HgN/A
8:00 AM82 °FPassing clouds.7 mph74%30.04 "HgN/A
7:00 AM79 °FPassing clouds.5 mph74%30.04 "HgN/A
6:00 AM79 °FPassing clouds.No wind74%30.01 "HgN/A
11:00 PM
Jul 28
81 °FPassing clouds.5 mph79%30.04 "HgN/A
10:00 PM81 °FPassing clouds.8 mph74%30.07 "HgN/A
9:00 PM81 °FPassing clouds.7 mph74%30.04 "HgN/A
8:00 PM81 °FPassing clouds.8 mph74%30.04 "HgN/A
7:00 PM81 °FPassing clouds.7 mph74%30.01 "HgN/A
6:00 PM82 °FPassing clouds.12 mph70%30.01 "HgN/A
4:00 PM86 °FPassing clouds.10 mph66%30.01 "HgN/A
3:00 PM86 °FScattered clouds.13 mph66%30.01 "HgN/A
2:00 PM86 °FScattered clouds.9 mph66%30.01 "HgN/A
1:00 PM86 °FScattered clouds.12 mph62%30.04 "HgN/A
Weather by CustomWeather, © 2014

See weather overviewHow to use our weather pages